カタログに戻る

STARLINK-35194

運用中通信SSO
NORAD 65671·PAYLOAD·🇺🇸 United States

打ち上げ Sep 19, 2025 から Vandenberg Space Force Base

Loading…

次のパス (今後24時間)

TLE

最新Source: CelesTrak SupGP

元期: Sep 14, 2026, 15:29 UTC

1 65671C 25211V   26257.64562500 -.00001812  00000+0 -56252-4 0  2570
2 65671  97.2843 297.9010 0001156  97.0406 203.9818 15.33437764    12

AllMySatでSTARLINK-35194をリアルタイム追跡

Download on the App Store